Location: Unspecified
(41.1850°N, 73.2650°W)
Time: 17:33:11
(UTC+00:00)

SJ-12 - Pass Details

Date: 14 December 2025
Orbit: 518 x 525 km, 97.8° (Epoch: 15 January)

Event Time Altitude Azimuth Distance (km) Brightness Sun altitude
Rises 22:40:42 0° 170° (S) 2,624 7.4 -13.8°
Reaches altitude 10° 22:42:47 10° 172° (S) 1,742 6.5 -14.1°
Maximum altitude 22:46:32 75° 258° (WSW) 542 3.9 -14.8°
Drops below altitude 10° 22:50:19 10° 344° (NNW) 1,759 6.4 -15.5°
Sets 22:52:26 0° 346° (NNW) 2,653 7.3 -15.9°
